[[{"header":{"parameterUnit":"m.s-1","parameterCategory":1,"la1":30.2991,"la2":30.254,"lo1":-89.0895,"lo2":-89.0444,"dy":0.0017,"dx":0.0017,"nx":28,"ny":28,"refTime":"2024-04-06T03:00:00:Z","depth":0,"parameterNumber":2,"parameterNumberName":"U-component_of_WINDS"},"data":[0,0,0,0,0,0,0,0,0,0,0,0,0,0,0,0,0,0,0,0,0,0,0,0,0,0,0,0,0,0,0,0,0,0,0,0,0,0,0,0,0,0,0,0,0,0,0,0,0,0,0,0,0,0,0,0,0,0,-0.7868,-0.7867,0,-0.7819,-0.7818,-0.7818,-0.7796,-0.7796,-0.7796,-0.7796,-0.7749,-0.7748,-0.7746,0,0,0,0,0,0,0,0,0,0,0,0,0,-0.7945,-0.7943,-0.7868,-0.7867,-0.7866,-0.7819,-0.7818,-0.7818,-0.7796,-0.7796,-0.7796,-0.7796,-0.7749,-0.7748,-0.7746,0,0,0,0,0,0,0,0,0,0,0,0,0,-0.7905,-0.7943,-0.7868,-0.785,-0.7847,-0.7819,-0.7818,-0.7818,-0.7796,-0.7796,-0.7796,-0.7796,-0.775,-0.7748,-0.7746,-0.7733,0,0,-0.774,-0.7739,0,0,0,0,0,0,0,0,-0.7908,-0.7903,-0.7853,-0.7851,-0.7848,-0.7813,-0.7829,-0.7789,-0.7796,-0.7815,-0.7796,-0.7796,-0.7771,-0.7767,-0.7758,-0.7731,-0.7729,-0.774,-0.7739,-0.7738,-0.7738,0,0,0,0,0,0,0,-0.791,-0.7905,-0.7848,-0.7852,-0.7849,-0.7845,-0.7839,-0.7821,-0.7793,-0.7814,-0.7812,-0.7806,-0.7769,-0.776,-0.7757,-0.7728,-0.774,-0.7738,-0.7737,-0.7737,-0.769,-0.769,0,0,0,0,0,0,-0.7916,-0.7907,-0.785,-0.7847,-0.7879,-0.7844,-0.7837,-0.7825,-0.7793,-0.7789,-0.7806,-0.7805,-0.7763,-0.7759,-0.7755,-0.7738,-0.7738,-0.7736,-0.7735,-0.769,-0.769,-0.769,0,0,0,0,0,0,-0.7917,-0.7911,-0.7852,-0.7876,-0.7869,-0.7842,-0.7828,-0.7824,-0.7814,-0.7788,-0.7783,-0.7801,-0.7763,-0.7758,-0.7739,-0.7736,-0.7735,-0.7734,-0.769,-0.769,-0.769,-0.7704,0,0,0,0,0,0,-0.792,-0.7911,-0.7905,-0.7876,-0.7867,-0.7836,-0.7828,-0.7823,-0.781,-0.7809,-0.7782,-0.7778,-0.7762,-0.7742,-0.7737,-0.7734,-0.7732,-0.769,-0.769,-0.769,-0.7704,-0.7705,-0.7705,0,0,0,0,0,-0.7922,-0.7912,-0.7905,-0.7898,-0.7859,-0.7836,-0.783,-0.7812,-0.781,-0.7804,-0.7788,-0.7778,-0.7737,-0.774,-0.7734,-0.773,-0.7691,-0.769,-0.769,-0.7704,-0.7705,-0.7705,0,0,0,0,0,0,-0.7942,-0.7908,-0.79,-0.7879,-0.786,-0.7832,-0.7824,-0.7814,-0.7796,-0.7795,-0.7775,-0.7769,-0.7752,-0.774,-0.7743,-0.7717,-0.7713,-0.7712,-0.7726,-0.7726,-0.7727,-0.773,-0.7731,0,0,0,0,0,-0.7943,-0.7926,-0.7898,-0.7882,-0.7873,-0.785,-0.7839,-0.7827,-0.7807,-0.7799,-0.7782,-0.7763,-0.7747,-0.7736,-0.7719,-0.7703,-0.7697,-0.7697,-0.7698,-0.7699,-0.7698,-0.7689,-0.7689,-0.7689,-0.7689,-0.7689,0,0,-0.7947,-0.7926,-0.7917,-0.7886,-0.787,-0.7853,-0.7844,-0.7827,-0.7815,-0.7797,-0.7778,-0.7765,-0.7743,-0.7726,-0.7717,-0.7715,-0.7696,-0.7698,-0.7699,-0.7698,-0.7689,-0.7689,-0.7689,-0.7689,-0.7689,-0.7689,0,0,-0.7945,-0.7927,-0.7913,-0.7897,-0.7873,-0.7858,-0.7854,-0.7827,-0.7817,-0.7798,-0.7785,-0.7771,-0.7742,-0.7727,-0.7716,-0.7711,-0.7701,-0.7706,-0.7709,-0.7701,-0.7701,-0.7701,-0.7699,-0.7698,-0.7705,-0.7705,-0.7705,0,-0.7953,-0.7926,-0.7907,-0.789,-0.7878,-0.7861,-0.7847,-0.7833,-0.7804,-0.7797,-0.7794,-0.7758,-0.7742,-0.7722,-0.772,-0.7712,-0.7708,-0.7708,-0.7702,-0.7702,-0.7702,-0.77,-0.7699,-0.7706,-0.7706,-0.7706,-0.7706,0,-0.7937,-0.7919,-0.7911,-0.7883,-0.787,-0.7855,-0.7834,-0.7823,-0.7813,-0.7798,-0.778,-0.7761,-0.774,-0.7734,-0.7724,-0.7712,-0.7711,-0.7706,-0.7702,-0.7702,-0.77,-0.7699,-0.7707,-0.7706,-0.7706,-0.7706,0,0,-0.7945,-0.7907,-0.7904,-0.7892,-0.7864,-0.7851,-0.7836,-0.7815,-0.7806,-0.7788,-0.7775,-0.7752,-0.7746,-0.7734,-0.7722,-0.7715,-0.7712,-0.7711,-0.771,-0.7712,-0.7699,-0.7703,-0.7703,-0.7707,-0.7706,-0.7706,-0.7701,0,-0.7939,-0.7909,-0.7892,-0.787,-0.7854,-0.7839,-0.7826,-0.7808,-0.7795,-0.7781,-0.7767,-0.775,-0.7745,-0.7737,-0.7729,-0.7714,-0.771,-0.7715,-0.7695,-0.7695,-0.7701,-0.7701,-0.7705,-0.7701,-0.77,-0.77,-0.77,0,-0.7927,-0.7909,-0.7885,-0.786,-0.7853,-0.7841,-0.7821,-0.7807,-0.7788,-0.7779,-0.7765,-0.7754,-0.7739,-0.7736,-0.7716,-0.772,-0.7711,-0.7703,-0.7702,-0.7699,-0.7697,-0.7698,-0.7699,-0.7699,-0.7698,-0.7698,-0.7698,0,-0.7935,-0.7904,-0.7886,-0.7876,-0.7847,-0.7839,-0.7827,-0.7807,-0.7796,-0.7779,-0.7772,-0.7754,-0.7744,-0.7731,-0.7715,-0.7715,-0.7697,-0.7693,-0.7689,-0.769,-0.7686,-0.7686,-0.7685,-0.7681,-0.7681,-0.7681,-0.7681,0,-0.793,-0.7916,-0.7889,-0.7878,-0.7863,-0.7844,-0.783,-0.7817,-0.78,-0.7787,-0.7773,-0.7762,-0.7742,-0.7728,-0.7716,-0.7702,-0.7698,-0.7691,-0.7687,-0.7691,-0.7692,-0.7685,-0.7685,-0.7681,-0.7681,-0.7681,-0.7681,0,-0.7936,-0.7917,-0.7897,-0.787,-0.7864,-0.7854,-0.7832,-0.7821,-0.7808,-0.7792,-0.7787,-0.7766,-0.775,-0.7733,-0.7711,-0.7703,-0.7689,-0.7685,-0.7695,-0.7693,-0.7691,-0.7691,-0.7685,-0.7683,-0.7681,-0.7681,-0.7681,0,-0.7933,-0.7922,-0.7895,-0.7885,-0.7873,-0.7857,-0.7845,-0.7827,-0.7816,-0.7793,-0.7786,-0.7768,-0.7753,-0.7728,-0.7711,-0.7695,-0.769,-0.7689,-0.7687,-0.7692,-0.769,-0.7691,-0.769,-0.7689,-0.769,-0.769,-0.769,0,-0.7931,-0.7923,-0.7906,-0.7886,-0.7872,-0.7856,-0.784,-0.7833,-0.7812,-0.78,-0.7782,-0.7771,-0.7748,-0.7731,-0.7713,-0.7702,-0.7693,-0.7691,-0.7689,-0.7693,-0.7699,-0.7696,-0.7696,-0.7691,-0.769,-0.769,-0.769,-0.769,-0.7933,-0.7923,-0.7902,-0.7884,-0.7869,-0.7854,-0.7843,-0.7828,-0.7813,-0.7793,-0.7783,-0.7766,-0.7749,-0.7723,-0.7712,-0.7699,-0.7697,-0.7694,-0.7693,-0.7693,-0.7694,-0.7701,-0.7696,-0.7696,-0.7696,-0.7696,-0.7696,0,-0.793,-0.7916,-0.79,-0.7877,-0.7863,-0.7855,-0.7837,-0.7826,-0.781,-0.7794,-0.778,-0.776,-0.7744,-0.7727,-0.771,-0.7703,-0.7699,-0.7699,-0.7699,-0.7697,-0.7697,-0.77,-0.7703,-0.7703,-0.7703,-0.7703,-0.7703,-0.7703,-0.7927,-0.7909,-0.7898,-0.7874,-0.7861,-0.7842,-0.7833,-0.7819,-0.7806,-0.7785,-0.7771,-0.776,-0.7744,-0.7726,-0.7711,-0.7706,-0.7701,-0.7703,-0.7697,-0.7697,-0.7697,-0.7696,-0.7699,-0.7702,-0.7702,-0.7698,-0.7698,-0.7698]},{"header":{"parameterUnit":"m.s-1","parameterCategory":1,"la1":30.2991,"la2":30.254,"lo1":-89.0895,"lo2":-89.0444,"dy":0.0017,"dx":0.0017,"nx":28,"ny":28,"refTime":"2024-04-06T03:00:00:Z","depth":0,"parameterNumber":3,"parameterNumberName":"V-component_of_WINDS"},"data":[0,0,0,0,0,0,0,0,0,0,0,0,0,0,0,0,0,0,0,0,0,0,0,0,0,0,0,0,0,0,0,0,0,0,0,0,0,0,0,0,0,0,0,0,0,0,0,0,0,0,0,0,0,0,0,0,0,0,5.8535,5.8535,0,5.8504,5.8503,5.8503,5.8415,5.8413,5.8411,5.8409,5.8377,5.8378,5.8379,0,0,0,0,0,0,0,0,0,0,0,0,0,5.8519,5.852,5.8536,5.8535,5.8535,5.8504,5.8503,5.8503,5.8415,5.8413,5.841,5.8408,5.8377,5.8378,5.8379,0,0,0,0,0,0,0,0,0,0,0,0,0,5.8511,5.852,5.8536,5.8487,5.8482,5.8504,5.8503,5.8503,5.8416,5.8413,5.841,5.8407,5.8377,5.8378,5.8379,5.8445,0,0,5.8384,5.8384,0,0,0,0,0,0,0,0,5.8512,5.8512,5.8495,5.849,5.8485,5.846,5.8486,5.8484,5.8416,5.8441,5.8409,5.8406,5.8407,5.8406,5.8406,5.8444,5.8442,5.8384,5.8385,5.8385,5.8386,0,0,0,0,0,0,0,5.8512,5.8513,5.8523,5.8494,5.8489,5.8467,5.8462,5.8485,5.8441,5.8439,5.8432,5.843,5.8404,5.8405,5.8405,5.8442,5.8384,5.8385,5.8386,5.8386,5.853,5.8533,0,0,0,0,0,0,5.852,5.8514,5.8524,5.8522,5.8492,5.8469,5.8464,5.8471,5.844,5.8433,5.8432,5.8426,5.8404,5.8403,5.8403,5.8477,5.8385,5.8386,5.8387,5.8527,5.853,5.8534,0,0,0,0,0,0,5.852,5.8522,5.8525,5.8516,5.8515,5.8473,5.8481,5.8472,5.8473,5.8435,5.8427,5.8441,5.8402,5.8401,5.8435,5.8475,5.8387,5.8388,5.8523,5.8528,5.8532,5.8626,0,0,0,0,0,0,5.852,5.8522,5.8547,5.8517,5.8516,5.8558,5.8483,5.8474,5.8476,5.8467,5.8442,5.8435,5.84,5.8433,5.8436,5.8475,5.8389,5.852,5.8525,5.8531,5.8619,5.8633,5.8645,0,0,0,0,0,5.8519,5.8575,5.8549,5.8551,5.8546,5.856,5.8559,5.8518,5.8479,5.8503,5.8479,5.8435,5.847,5.8438,5.844,5.848,5.8517,5.8524,5.853,5.8613,5.863,5.8645,0,0,0,0,0,0,5.8612,5.8571,5.8541,5.8589,5.8579,5.8545,5.8575,5.8537,5.8538,5.853,5.8479,5.8474,5.8514,5.85,5.8465,5.8541,5.8486,5.8494,5.8548,5.8564,5.8577,5.8579,5.8391,0,0,0,0,0,5.8638,5.8653,5.8616,5.8662,5.8658,5.8618,5.8623,5.8591,5.8579,5.8574,5.8552,5.8542,5.855,5.8556,5.8562,5.8617,5.8609,5.8645,5.8658,5.8669,5.8676,5.8702,5.8717,5.8556,5.8556,5.8555,0,0,5.8691,5.8671,5.8684,5.868,5.8668,5.8685,5.8615,5.8636,5.8647,5.8577,5.8607,5.8591,5.8575,5.862,5.8638,5.8609,5.8719,5.8678,5.8687,5.8687,5.8711,5.8726,5.874,5.856,5.8559,5.8559,0,0,5.8797,5.8784,5.8819,5.8809,5.8792,5.8765,5.8773,5.8746,5.8732,5.8761,5.8708,5.8721,5.8737,5.8727,5.8725,5.8826,5.8785,5.8829,5.8897,5.8923,5.8936,5.8947,5.8981,5.8994,5.8836,5.8837,5.8837,0,5.8866,5.8889,5.8843,5.8866,5.8866,5.8803,5.8838,5.883,5.8817,5.8817,5.8785,5.8803,5.8788,5.8828,5.8853,5.8853,5.8861,5.8832,5.8937,5.8948,5.8958,5.899,5.9003,5.8842,5.8841,5.8841,5.884,0,5.8973,5.899,5.9021,5.9008,5.9011,5.9041,5.8999,5.9007,5.8975,5.8951,5.898,5.8961,5.896,5.8968,5.8937,5.9003,5.8986,5.8947,5.889,5.8979,5.9008,5.9021,5.885,5.8848,5.8846,5.8845,0,0,5.9137,5.9097,5.911,5.9102,5.9078,5.909,5.9116,5.9115,5.9123,5.9115,5.9135,5.9149,5.9112,5.9109,5.9077,5.91,5.9179,5.9058,5.9057,5.908,5.9249,5.9278,5.9293,5.9153,5.9155,5.9157,5.925,0,5.9236,5.9278,5.9237,5.9287,5.9301,5.924,5.9263,5.9251,5.9228,5.9236,5.9212,5.9222,5.9173,5.9171,5.9191,5.9166,5.9212,5.9158,5.917,5.9171,5.9174,5.9308,5.9339,5.9428,5.9261,5.9263,5.9264,0,5.9357,5.9354,5.9406,5.9376,5.9381,5.9402,5.9397,5.9406,5.939,5.9372,5.9368,5.9328,5.9351,5.9297,5.9327,5.9291,5.9293,5.9281,5.9284,5.9282,5.9222,5.931,5.9456,5.9469,5.9282,5.9281,5.928,0,5.947,5.9479,5.951,5.9506,5.9473,5.9489,5.9476,5.9457,5.9459,5.9455,5.9455,5.9454,5.9453,5.9452,5.9413,5.9378,5.9448,5.939,5.9433,5.9434,5.945,5.9449,5.9597,5.9453,5.9453,5.9453,5.9452,0,5.9584,5.9618,5.956,5.9579,5.9614,5.9566,5.9602,5.9583,5.9567,5.9581,5.9529,5.9543,5.9491,5.95,5.9469,5.9498,5.9498,5.9484,5.9475,5.9488,5.949,5.9488,5.948,5.9456,5.9455,5.9455,5.9454,0,5.9716,5.9678,5.9708,5.9674,5.9667,5.9694,5.9665,5.9681,5.9655,5.9673,5.9674,5.9633,5.9641,5.9602,5.9602,5.9581,5.9625,5.9606,5.963,5.9624,5.9668,5.9664,5.9819,5.9836,5.9683,5.9684,5.9686,0,5.9791,5.9815,5.9783,5.9789,5.9778,5.9788,5.9789,5.9742,5.9745,5.9728,5.9746,5.9748,5.9748,5.9762,5.9732,5.9732,5.9712,5.9766,5.9712,5.9723,5.9711,5.971,5.9711,5.9778,5.978,5.9781,5.9782,0,5.9928,5.9907,5.991,5.9907,5.9909,5.9904,5.9896,5.9903,5.9852,5.9858,5.9865,5.9864,5.9864,5.9867,5.986,5.9846,5.9806,5.98,5.9809,5.9822,5.9835,5.9827,5.966,5.9796,5.9795,5.9794,5.9793,5.9793,6.0032,6.005,6.003,6.0035,6.0023,6.0016,6.0029,6.0004,6.0008,6.0004,5.9976,5.9987,5.9969,5.9955,5.9945,5.9953,5.9927,5.9941,5.9945,5.9949,5.9956,5.9834,5.9952,5.9951,5.9951,5.9951,5.995,0,6.0165,6.0149,6.0153,6.0143,6.0146,6.0107,6.0095,6.0101,6.0111,6.0098,6.0098,6.0104,6.0106,6.0076,6.0074,6.0086,6.0067,6.0087,6.0085,6.0082,5.998,5.9971,6.0102,6.0102,6.0102,6.0102,6.0102,6.0102,6.0234,6.0262,6.0239,6.026,6.0244,6.0254,6.025,6.0243,6.0231,6.0241,6.0242,6.0222,6.0201,6.0197,6.0197,6.0188,6.0189,6.0215,6.02,6.0105,6.009,6.0076,6.0067,6.0216,6.0216,6.0301,6.0302,6.0303]}]]